Home > Weather > Pulheim > Past weeks

Flag for Germany Past Weather in Pulheim, North Rhine-Westphalia, Germany — Yesterday and Last 2 Weeks

Now
59 °F

Cool.


Feels Like: 58 °F
Forecast: 54 / 67 °F
Wind: 7 mph from West

Location: Noervenich

Current Time: Jun 25, 2016 at 12:40:54 PM

Latest Report: Jun 25, 2016 at 11:20 AM


Visibility: 1 mi

Pressure: 29.98 "Hg

Humidity: 100%

Dew Point: 59 °F

Location of PulheimLocation

Past Weather in Pulheim — Graph

°F

Pulheim Temperature Yesterday

Maximum temperature yesterday: 75 °F (at 5:20 PM)
Minimum temperature yesterday: 64 °F (at 5:20 AM)
Average temperature yesterday: 70 °F

High & Low Weather Summary for the Past Weeks

 TemperatureHumidityPressure
High91 °F (Jun 23, 2:20 PM)100% (Jun 16, 11:20 PM)30.27 "Hg (Jun 16, 11:20 PM)
Low48 °F (Jun 16, 4:20 AM)40% (Jun 10, 4:20 PM)29.47 "Hg (Jun 14, 5:20 PM)
Average63 °F79%29.88 "Hg
* Reported Jun 10 10:20 AM — Jun 25 10:20 AM, Pulheim, Weather by CustomWeather, © 2016

Note: Actual official high and low records may vary slightly from our data, if they occured in-between our weather recording intervals... More about our weather records

Advertising

Pulheim Weather History for the Previous 24 Hours

Scroll right to see more
 ConditionsComfort  
Time TempWeatherWind HumidityBarometerVisibility
10:20 AM
Sat, Jun 25
61 °FCool.9 mph94%29.95 "HgN/A
9:20 AM61 °FCool.8 mph88%29.98 "HgN/A
8:20 AM63 °FMild.6 mph88%29.98 "HgN/A
7:20 AM63 °FMild.5 mph88%29.98 "Hg4 mi
6:20 AM63 °FFog.5 mph94%29.98 "Hg3 mi
5:20 AM63 °FOvercast.5 mph94%30.01 "Hg5 mi
4:20 AM63 °FLight rain. Mostly cloudy.3 mph94%30.01 "Hg5 mi
3:20 AM64 °FPartly cloudy.3 mph83%30.01 "HgN/A
2:20 AM66 °FPartly cloudy.6 mph83%30.04 "HgN/A
1:20 AM68 °FPassing clouds.3 mph83%30.07 "HgN/A
12:20 AM66 °FPassing clouds.3 mph88%30.07 "HgN/A
11:20 PM
Fri, Jun 24
68 °FPassing clouds.5 mph88%30.07 "HgN/A
10:20 PM68 °FScattered clouds.3 mph88%30.07 "HgN/A
9:20 PM70 °FScattered clouds.5 mph78%30.07 "HgN/A
8:20 PM73 °FScattered clouds.5 mph74%30.07 "HgN/A
7:20 PM73 °FScattered clouds.7 mph74%30.04 "HgN/A
6:20 PM75 °FScattered clouds.7 mph69%30.07 "HgN/A
5:20 PM75 °FScattered clouds.8 mph69%30.07 "HgN/A
4:20 PM73 °FScattered clouds.7 mph74%30.07 "HgN/A
3:20 PM72 °FBroken clouds.9 mph83%30.07 "HgN/A
2:20 PM73 °FBroken clouds.8 mph83%30.07 "HgN/A
1:20 PM73 °FPartly sunny.8 mph78%30.07 "HgN/A
12:20 PM73 °FPartly sunny.12 mph83%30.07 "HgN/A
12:03 PM72 °FBroken clouds.9 mph83%30.07 "HgN/A
Weather by CustomWeather, © 2016

See weather overviewHow to use our weather pages